This is the latest recevied weather packets stored in our database for station/object DJ3AN. If no packets are shown the sender has not sent any weather packets the latest 10 day(s).
| Time | Temp. | Humidity | Pressure | Rain* | Wind** | Luminosity | Snow |
|---|---|---|---|---|---|---|---|
| 1777809905 | 25° C | 55% | 1008.8 hPa | 0 mm | - | - | - |
| 1777809605 | 25° C | 55% | 1008.8 hPa | 0 mm | - | - | - |
| 1777809306 | 25° C | 55% | 1008.9 hPa | 0 mm | - | - | - |
| 1777809007 | 25.56° C | 54% | 1008.9 hPa | 0 mm | - | - | - |
| 1777808706 | 26.11° C | 52% | 1009 hPa | 0 mm | - | - | - |
| 1777808406 | 26.11° C | 51% | 1008.9 hPa | 0 mm | - | - | - |
| 1777808106 | 26.11° C | 50% | 1009.1 hPa | 0 mm | - | - | - |
| 1777807806 | 25.56° C | 51% | 1009.1 hPa | 0 mm | - | - | - |
| 1777807506 | 25.56° C | 52% | 1009.2 hPa | 0 mm | - | - | - |
| 1777807206 | 25.56° C | 52% | 1009.2 hPa | 0 mm | - | - | - |
| 1777806906 | 25.56° C | 54% | 1009.3 hPa | 0 mm | - | - | - |
| 1777806606 | 25.56° C | 53% | 1009.4 hPa | 0 mm | - | - | - |
| 1777806305 | 25.56° C | 56% | 1009.4 hPa | 0 mm | - | - | - |
| 1777806005 | 25° C | 59% | 1009.5 hPa | 0 mm | - | - | - |
| 1777805706 | 24.44° C | 59% | 1009.5 hPa | 0 mm | - | - | - |
| 1777805406 | 24.44° C | 59% | 1009.6 hPa | 0 mm | - | - | - |
| 1777805105 | 24.44° C | 60% | 1009.6 hPa | 0 mm | - | - | - |
| 1777804805 | 23.89° C | 61% | 1009.6 hPa | 0 mm | - | - | - |
| 1777804505 | 23.33° C | 61% | 1009.6 hPa | 0 mm | - | - | - |
| 1777804205 | 23.33° C | 60% | 1009.7 hPa | 0 mm | - | - | - |
| 1777803905 | 23.33° C | 60% | 1009.7 hPa | 0 mm | - | - | - |
| 1777803605 | 23.33° C | 61% | 1009.8 hPa | 0 mm | - | - | - |
| 1777803305 | 23.33° C | 62% | 1009.9 hPa | 0 mm | - | - | - |
| 1777803005 | 22.78° C | 64% | 1009.9 hPa | 0 mm | - | - | - |
| 1777802705 | 22.78° C | 61% | 1010 hPa | 0 mm | - | - | - |
* Rain latest hour (hover to see other rain measurements)
** Current wind speed in m/s (hover to see current wind gust speed)